Miscellaneous Local Product
Issued by NWS Hastings, NE

Home | Current Version | Previous Version | Text Only | Print | Product List | Glossary Off
Versions: 1 2 3 4 5 6 7 8 9 10 11 12 13 14 15 16 17 18 19 20 21 22 23 24 25 26 27 28 29 30 31 32 33 34 35 36 37 38 39 40 41 42 43 44 45 46 47 48 49 50

000
AXUS43 KGID 220302
MISGRI

GID CWA HOURLY WEATHER ROUNDUP
NATIONAL WEATHER SERVICE HASTINGS NE
1000 PM CDT MON AUG 21 2017

NOTE: "FAIR" INDICATES FEW OR NO CLOUDS BELOW 12,000 FEET WITH NO
SIGNIFICANT WEATHER AND/OR OBSTRUCTIONS TO VISIBILITY.

...SOUTH CENTRAL NEBRASKA...

CITY           SKY/WX    TMP DP  RH WIND       PRES   REMARKS
GRAND ISLAND   CLOUDY    71  67  87 NE16G25   30.03R
HASTINGS       MOCLDY    77  70  79 N13       29.99R
KEARNEY        CLOUDY    73  67  81 NE20G31   30.03R
ORD            CLOUDY    68  63  84 NE9       30.04R
YORK           CLOUDY    72  70  94 N22G32    29.98R
AURORA         CLOUDY    70  68  93 NE16G26   30.00R
LEXINGTON      CLOUDY    75  67  75 NE8       30.05R
HOLDREGE       MOCLDY    74  69  82 N15G26    30.01R
HEBRON         PTCLDY    73  71  93 CALM      29.94R

...NEBRASKA PANHANDLE...

CITY           SKY/WX    TMP DP  RH WIND       PRES   REMARKS
CHADRON        CLEAR     65  45  48 CALM      30.17R
ALLIANCE       CLEAR     61  49  64 N10       30.18R
SCOTTSBLUFF    CLEAR     66  48  52 NE7       30.18R
SIDNEY         CLEAR     66  50  56 NE7       30.20R

...WESTERN AND NORTH CENTRAL NEBRASKA...

CITY           SKY/WX    TMP DP  RH WIND       PRES   REMARKS
VALENTINE      CLEAR     70  51  51 N10       30.11R
AINSWORTH      CLEAR     65  65  97 N3        30.10R
ONEILL         CLEAR     65  65 100 CALM      30.06R
BROKEN BOW     MOCLDY    73  65  75 N13       30.06R
IMPERIAL       CLEAR     70  65  84 N8        30.11R
NORTH PLATTE   CLEAR     71  66  84 N9        30.08R
MCCOOK         PTCLDY    77  68  73 N23       30.03R

...EASTERN NEBRASKA...

CITY           SKY/WX    TMP DP  RH WIND       PRES   REMARKS
NORFOLK        CLOUDY    65  65 100 NW3       30.02R
SO SIOUX CITY  CLOUDY    66  66 100 CALM      30.01R
TEKAMAH        HVY RAIN  66  64  93 N8        29.98S FOG
COLUMBUS       LGT RAIN  67  65  93 NE7       30.02S
ALBION         CLOUDY    67  65  93 NE5       30.04R
OMAHA EPPLEY   LGT RAIN  67  62  84 NE21G35   30.01R
OFFUTT AFB     HVY RAIN  70  66  88 N28G40    29.95S VSB 1
MILLARD        LGT RAIN  72  63  73 NE16G30   30.00R
LINCOLN        CLOUDY    77  73  87 NE3       29.94R
NEBRASKA CITY  CLOUDY    76  76 100 SE5       29.95R
BEATRICE       CLOUDY    77  70  79 NE3       29.94R
FALLS CITY     LGT RAIN  71  69  93 SE7       29.92F

...NORTHERN KANSAS...

CITY           SKY/WX    TMP DP  RH WIND       PRES   REMARKS
GOODLAND       CLEAR     74  67  78 N9        30.08R
HILL CITY      CLEAR     76  67  73 N8        29.96R
NORTON         CLEAR     73  63  68 N8        29.98R
PHILLIPSBURG   CLEAR     81  64  57 N8        29.94R
SMITH CENTER   PTCLDY    73  64  73 NE8       29.93R
HAYS           CLEAR     79  66  64 SW9       29.95R
RUSSELL        CLEAR     80  66  62 S13       29.93R
CONCORDIA      CLEAR     77  72  84 S10       29.92R
SALINA         CLOUDY    84  70  62 S9        29.93R
TOPEKA         TSTM      72  72 100 N10       29.98R VSB 1



USA.gov is the U.S. government's official web portal to all federal, state and local government web resources and services.